Location: Namasale
(1.5000°N, 32.6167°E)
Time: 22:38:16
(UTC+00:00)

Vanguard 3 - Pass Details

Date: 04 December 2021
Orbit: 508 x 3260 km, 33.3° (Epoch: 27 January)

Event Time Altitude Azimuth Distance (km) Brightness Sun altitude
Exits shadow 02:18:21 20° 313° (NW) 5,385 10.7 -19.4°
Maximum altitude 02:25:31 24° 339° (NNW) 4,997 10.7 -17.7°
Drops below altitude 10° 02:38:33 10° 27° (NNE) 5,490 11.4 -14.7°
Sets 02:43:47 0° 41° (NE) 6,104 11.9 -13.5°
